Regional Weather Roundup
Issued by NWS

Home | Current Version | Previous Version | Graphics & Text | Print | Product List | Glossary On
Versions: 1 2 3 4 5 6 7 8 9 10 11 12 13 14 15 16 17 18 19 20 21 22 23 24 25 26 27 28 29 30 31 32 33 34 35 36 37 38 39 40 41 42 43 44 45 46 47 48 49 50
000
ASUS45 KCYS 202210
RWRWY

WYOMING REGIONAL WEATHER ROUNDUP
NATIONAL WEATHER SERVICE CHEYENNE WY
300 PM MST SAT DEC 20 2014

NOTE:  "FAIR" INDICATES FEW OR NO CLOUDS BELOW 12,000 FEET
WITH NO SIGNIFICANT WEATHER AND/OR OBSTRUCTIONS TO VISIBILITY.

WYZ001-202300-
YELLOWSTONE NATIONAL PARK

CITY           SKY/WX    TMP DP  RH WIND       PRES   REMARKS
LK YELLOWSTONE   N/A     28  22  78 W7        29.91F WCI  21
W YELLOWSTONE  NOT AVBL

$$
WYZ002>013-054>058-071-098>099-202300-
NORTHERN WYOMING

CITY           SKY/WX    TMP DP  RH WIND       PRES   REMARKS
JACKSON        CLOUDY    34  28  80 S14       29.94F WCI  24
CODY           CLOUDY    39  23  52 SE5       29.85F
GREYBULL       PTSUNNY   27  20  75 E3        29.90F
WORLAND        FAIR      26  20  77 CALM      29.89F
SHERIDAN       FAIR      40  26  57 E3        29.84F
BUFFALO        FAIR      37  23  56 S3        29.86F
GILLETTE       FAIR      44  25  47 SE8       29.87S
HULETT           N/A    N/A N/A N/A MISG        N/A
NEWCASTLE      FAIR      43  23  45 CALM      29.90S

$$
WYZ014>020-022>026-101>103-202300-
CENTRAL WYOMING

CITY           SKY/WX    TMP DP  RH WIND       PRES   REMARKS
BIG PINEY      CLOUDY    34  23  64 W7        29.97S WCI  28
PINEDALE       MOCLDY    32  23  69 CALM      29.98R
DUBOIS         NOT AVBL
LANDER         FAIR      28  22  78 S6        29.90F WCI  22
RIVERTON       FAIR      23  19  85 W6        29.92S WCI  16
CASPER         FAIR      35  27  72 SW16      29.91S WCI  25
DOUGLAS        FAIR      43  24  47 W14       29.90F

$$
WYZ021-027>030-104>119-202300-
SOUTHERN WYOMING

CITY           SKY/WX    TMP DP  RH WIND       PRES   REMARKS
EVANSTON       CLOUDY    31  30  96 SW20      30.00S WCI  19
KEMMERER       CLOUDY    32  30  93 W17       30.00R WCI  21
FORT BRIDGER   LGT SNOW  34  34 100 W14       30.03F WCI  24
ROCK SPRINGS   LGT SNOW  30  29  96 SW12      29.99F VSB 3/4 WCI  20
DIXON          CLOUDY    33  25  73 S12       30.06F WCI  24
RAWLINS        PTSUNNY   33  24  69 SW10      29.97F WCI  25
SARATOGA       CLOUDY    32  27  80 SW9       30.00S WCI  24
LARAMIE        CLOUDY    33  21  61 SW15      29.95S WCI  23
CHEYENNE       FAIR      43  19  38 W13       29.93F
TORRINGTON     FAIR     N/A N/A N/A W7        29.91S
PINE BLUFFS    FAIR      41  25  52 NW9       29.94R

$$



USA.gov is the U.S. government's official web portal to all federal, state and local government web resources and services.